EW0275 Weather Reports


time (UTC)temp
C
wind
direction
speed
KPH
gust
KPH
rain 1hr
cm
rain 24hr
cm
rain mn
cm
humidity
%
barometer
mb
20260510104505 11 0 0.0 0.0 0.00 0.84 0.15 96 1012.5
20260510104204 11 0 0.0 0.0 0.00 0.84 0.15 96 1012.5
20260510103904 10 0 0.0 0.0 0.00 0.84 0.15 96 1012.4
20260510103604 10 0 0.0 0.0 0.00 0.84 0.15 96 1012.3
20260510102704 10 0 0.0 0.0 0.00 0.84 0.15 96 1012.0
20260510102104 10 0 0.0 0.0 0.00 0.84 0.15 96 1011.9
20260510101805 10 0 0.0 0.0 0.00 0.84 0.15 96 1011.8
20260510101504 10 0 0.0 0.0 0.00 0.84 0.15 96 1011.6
20260510101204 10 0 0.0 0.0 0.00 0.84 0.15 96 1011.7
20260510100604 10 0 0.0 0.0 0.00 0.84 0.15 96 1011.8
20260510100004 10 0 0.0 0.0 0.00 0.86 0.15 95 1011.6
20260510095704 10 0 0.0 0.0 0.00 0.86 0.15 95 1011.5
20260510095405 10 0 0.0 0.0 0.00 0.86 0.15 95 1011.4
20260510095104 10 0 0.0 0.0 0.00 0.86 0.15 95 1011.3
20260510094804 10 0 0.0 0.0 0.00 0.86 0.15 95 1011.2
20260510094205 10 0 0.0 0.0 0.00 0.86 0.15 95 1011.2
20260510093604 10 0 0.0 0.0 0.00 0.86 0.15 95 1011.1
20260510093305 10 0 0.0 0.0 0.00 0.86 0.15 95 1011.0
20260510093005 10 0 0.0 0.0 0.00 0.86 0.15 95 1010.9
20260510092704 10 0 0.0 0.0 0.00 0.86 0.15 95 1010.9
20260510092404 10 0 0.0 0.0 0.03 0.86 0.15 95 1010.9
20260510092104 10 0 0.0 0.0 0.03 0.86 0.15 95 1010.7
20260510091804 10 0 0.0 0.0 0.03 0.86 0.15 95 1010.7
20260510091504 10 0 0.0 0.0 0.03 0.86 0.15 95 1010.7
20260510091204 10 0 0.0 0.0 0.03 0.86 0.15 95 1010.8
20260510090605 11 0 0.0 0.0 0.03 0.86 0.15 95 1010.6
20260510090005 11 0 0.0 1.6 0.03 0.86 0.15 95 1010.5
20260510085704 11 0 0.0 1.6 0.03 0.86 0.15 95 1010.4
20260510085405 11 0 0.0 3.2 0.03 0.89 0.15 95 1010.4
20260510084805 11 0 0.0 3.2 0.03 0.89 0.15 95 1010.2
20260510083904 11 0 0.0 0.0 0.03 0.89 0.15 95 1010.0
20260510083605 11 0 0.0 0.0 0.03 0.89 0.15 95 1010.2
20260510083304 11 0 0.0 0.0 0.03 0.89 0.15 95 1010.1
20260510083005 11 0 0.0 3.2 0.03 0.89 0.15 95 1010.2
20260510082705 11 0 0.0 3.2 0.03 0.89 0.15 95 1010.2
20260510082404 11 0 0.0 3.2 0.00 0.86 0.13 95 1010.1
20260510081804 11 0 0.0 1.6 0.00 0.86 0.13 95 1010.0
20260510081504 11 0 0.0 1.6 0.00 0.86 0.13 95 1010.1
20260510081205 11 0 0.0 1.6 0.00 0.86 0.13 95 1010.1
20260510080904 11 0 0.0 1.6 0.00 0.86 0.13 95 1010.0
20260510075704 11 356 1.6 6.4 0.03 0.86 0.13 95 1009.9
20260510075105 11 338 1.6 6.4 0.03 0.86 0.13 95 1009.8
20260510074804 11 0 0.0 6.4 0.03 0.86 0.13 95 1009.5
20260510074504 11 0 0.0 0.0 0.03 0.86 0.13 95 1009.6
20260510074205 11 0 0.0 0.0 0.03 0.86 0.13 95 1009.5
20260510073905 11 0 0.0 0.0 0.03 0.86 0.13 95 1009.5
20260510073604 11 0 0.0 0.0 0.03 0.86 0.13 94 1009.6
20260510073304 11 0 0.0 0.0 0.03 0.86 0.13 94 1009.5
20260510072704 11 0 0.0 0.0 0.05 0.86 0.13 95 1009.6
20260510072404 11 0 0.0 0.0 0.05 0.86 0.13 95 1009.6
20260510071804 12 0 0.0 0.0 0.05 0.86 0.13 95 1009.5
20260510071505 12 0 0.0 0.0 0.05 0.86 0.13 95 1009.5
20260510071205 12 0 0.0 0.0 0.05 0.86 0.13 94 1009.6
20260510070604 12 0 0.0 1.6 0.05 0.86 0.13 95 1009.6
20260510070005 12 0 0.0 3.2 0.03 0.84 0.10 95 1009.6
20260510065705 12 0 0.0 3.2 0.05 0.84 0.10 94 1009.4
20260510065404 12 0 0.0 3.2 0.05 0.84 0.10 94 1009.4
20260510065104 12 0 0.0 3.2 0.05 0.84 0.10 95 1009.4
20260510064804 12 62 1.6 4.8 0.05 0.84 0.10 95 1009.4
20260510064504 12 113 1.6 4.8 0.05 0.84 0.10 95 1009.3
20260510064204 12 119 1.6 4.8 0.05 0.84 0.10 94 1009.3
20260510063904 12 113 1.6 4.8 0.08 0.84 0.10 94 1009.4
20260510063605 12 107 1.6 4.8 0.08 0.84 0.10 94 1009.3
20260510063304 12 118 1.6 4.8 0.08 0.84 0.10 94 1009.3
20260510062704 12 114 1.6 4.8 0.05 0.81 0.08 94 1009.4
20260510062404 12 75 1.6 3.2 0.05 0.81 0.08 94 1009.3
20260510062104 12 80 1.6 4.8 0.05 0.81 0.08 94 1009.4
20260510061804 12 98 1.6 4.8 0.05 0.81 0.08 94 1009.4
20260510061504 12 124 3.2 8.0 0.05 0.81 0.08 94 1009.3
20260510060905 13 140 4.8 8.0 0.05 0.81 0.08 95 1009.3
20260510060604 13 146 4.8 8.0 0.05 0.81 0.08 95 1009.3
20260510060304 13 154 4.8 9.7 0.05 0.81 0.08 95 1009.5
20260510055704 13 168 4.8 9.7 0.03 0.79 0.05 95 1009.6
20260510055404 13 173 4.8 9.7 0.03 0.79 0.05 95 1009.7
20260510055105 13 177 4.8 9.7 0.03 0.79 0.05 95 1009.6
20260510054805 13 181 6.4 9.7 0.03 0.79 0.05 95 1009.7
20260510054505 13 176 4.8 11.3 0.03 0.79 0.05 95 1009.6
20260510054205 13 168 3.2 11.3 0.03 0.79 0.05 95 1009.8
20260510053905 13 148 3.2 11.3 0.00 0.76 0.03 95 1009.8
20260510053604 13 240 3.2 11.3 0.00 0.76 0.03 95 1009.8
20260510053304 13 278 4.8 14.5 0.00 0.76 0.03 95 1009.9
20260510053004 13 288 4.8 14.5 0.03 0.76 0.03 95 1010.3
20260510052704 13 287 6.4 14.5 0.03 0.76 0.03 95 1010.7
20260510052404 13 282 6.4 14.5 0.03 0.76 0.03 95 1010.6
20260510052104 13 278 6.4 14.5 0.03 0.76 0.03 95 1010.8
20260510051804 12 274 4.8 14.5 0.03 0.76 0.03 95 1010.8
20260510051504 12 291 1.6 11.3 0.03 0.76 0.03 95 1010.6
20260510051204 12 140 1.6 4.8 0.03 0.76 0.03 94 1010.2
20260510050604 12 0 0.0 0.0 0.03 0.76 0.03 94 1009.3
20260510050305 12 0 0.0 0.0 0.03 0.76 0.03 94 1009.4
20260510050005 12 0 0.0 0.0 0.03 0.76 0.03 94 1009.3
20260510045704 12 0 0.0 0.0 0.03 0.76 0.03 94 1009.2
20260510045404 12 0 0.0 0.0 0.03 0.76 0.03 94 1009.3
20260510045105 12 0 0.0 0.0 0.05 0.76 0.03 94 1009.2
20260510044804 12 131 1.6 4.8 0.05 0.76 0.03 94 1009.2
20260510044505 13 131 1.6 4.8 0.05 0.76 0.03 94 1009.3
20260510044204 13 131 1.6 4.8 0.05 0.76 0.03 94 1009.2
20260510043904 13 131 1.6 3.2 0.05 0.76 0.03 94 1009.3
20260510043604 13 134 1.6 4.8 0.05 0.76 0.03 94 1009.2
20260510043304 13 135 1.6 6.4 0.05 0.76 0.03 94 1009.2
20260510043005 13 132 1.6 6.4 0.05 0.74 0.00 94 1009.2
20260510042704 13 118 1.6 6.4 0.05 0.74 0.00 94 1009.3
20260510042405 13 23 1.6 4.8 0.05 0.74 0.00 94 1009.3
20260510041805 13 3 1.6 3.2 0.08 0.74 0.00 94 1009.3
20260510041505 13 353 1.6 4.8 0.08 0.74 0.00 94 1009.4
20260510041204 13 355 1.6 4.8 0.08 0.74 0.00 94 1009.4
20260510040904 13 67 1.6 4.8 0.08 0.74 0.00 94 1009.3
20260510040604 13 175 3.2 6.4 0.08 0.74 0.00 94 1009.3
20260510040305 13 193 3.2 8.0 0.08 0.74 0.00 94 1009.3
20260510040008 13 189 3.2 8.0 0.10 0.74 0.00 94 1009.3
20260510035704 13 185 3.2 8.0 0.10 0.74 0.74 94 1009.2
20260510035404 13 41 1.6 8.0 0.13 0.74 0.74 94 1009.0
20260510035105 13 4 3.2 8.0 0.10 0.71 0.71 94 1009.2
20260510034804 13 5 3.2 8.0 0.10 0.71 0.71 94 1009.3
20260510034504 13 20 3.2 6.4 0.10 0.71 0.71 94 1009.0
20260510034204 13 25 1.6 4.8 0.10 0.71 0.71 94 1008.8
20260510033905 13 90 1.6 4.8 0.10 0.71 0.71 94 1008.6
20260510033604 13 121 1.6 4.8 0.10 0.71 0.71 93 1008.4
20260510033304 13 124 1.6 4.8 0.10 0.71 0.71 93 1008.4
20260510033005 13 112 1.6 4.8 0.08 0.69 0.69 93 1008.5
20260510032704 13 101 1.6 4.8 0.08 0.71 0.69 93 1008.8
20260510032404 13 0 0.0 3.2 0.08 0.71 0.69 93 1008.8
20260510031804 13 0 0.0 3.2 0.05 0.69 0.66 93 1008.8
20260510031504 13 0 0.0 3.2 0.05 0.69 0.66 93 1008.8
20260510031204 13 51 1.6 3.2 0.05 0.69 0.66 93 1008.7
20260510030304 13 61 1.6 3.2 0.05 0.69 0.66 93 1008.4
20260510030005 13 0 0.0 3.2 0.03 0.66 0.64 93 1008.6
20260510022705 13 145 1.6 6.4 0.18 0.64 0.61 92 1008.9
20260510022404 13 157 1.6 6.4 0.25 0.64 0.61 92 1008.8
20260510022104 13 164 1.6 6.4 0.30 0.64 0.61 92 1008.9
20260510021804 13 164 1.6 3.2 0.38 0.64 0.61 92 1008.9
20260510021504 13 163 1.6 1.6 0.38 0.64 0.61 91 1008.9
20260510021204 13 163 1.6 3.2 0.38 0.64 0.61 91 1009.0
20260510020904 13 164 1.6 6.4 0.38 0.64 0.61 91 1009.0
20260510020604 13 163 1.6 6.4 0.38 0.64 0.61 90 1009.0
20260510020305 13 164 1.6 6.4 0.38 0.64 0.61 90 1009.0
20260510020005 13 164 1.6 6.4 0.38 0.64 0.61 90 1009.1
20260510015704 13 164 1.6 6.4 0.38 0.64 0.61 90 1009.2
20260510015404 14 0 0.0 3.2 0.38 0.64 0.61 89 1009.1
20260510015104 14 0 0.0 3.2 0.38 0.64 0.61 89 1009.0
20260510014805 14 0 0.0 1.6 0.38 0.64 0.61 88 1009.0
20260510014505 14 168 1.6 9.7 0.38 0.64 0.61 88 1009.0
20260510014205 14 177 3.2 9.7 0.36 0.61 0.58 87 1008.9
20260510013904 14 191 4.8 11.3 0.33 0.58 0.56 86 1008.7
20260510013604 14 225 4.8 12.9 0.30 0.56 0.53 86 1008.8
20260510013304 14 262 3.2 12.9 0.28 0.53 0.51 85 1009.0
20260510013005 15 291 3.2 12.9 0.23 0.48 0.46 84 1009.1
20260510012704 15 307 3.2 22.5 0.18 0.43 0.41 82 1009.1
20260510012405 15 302 4.8 22.5 0.13 0.38 0.36 79 1009.0
20260510012104 16 299 6.4 22.5 0.05 0.30 0.28 75 1008.8
20260510011204 17 312 8.0 25.7 0.00 0.25 0.23 66 1008.4
20260510010904 18 305 8.0 25.7 0.00 0.25 0.23 63 1008.0
20260510010604 18 291 8.0 25.7 0.00 0.25 0.23 61 1007.9
20260510010304 19 280 6.4 16.1 0.00 0.25 0.23 58 1007.4
20260510010005 19 266 4.8 16.1 0.00 0.25 0.23 57 1007.0
20260510005705 19 256 3.2 16.1 0.00 0.25 0.23 57 1006.6
20260510005405 19 248 3.2 12.9 0.00 0.25 0.23 57 1006.4
20260510005104 19 260 6.4 17.7 0.00 0.25 0.23 56 1006.2
20260510004804 19 265 4.8 17.7 0.00 0.28 0.23 56 1006.3
20260510004505 19 270 4.8 17.7 0.00 0.28 0.23 56 1006.2
20260510004204 19 279 3.2 9.7 0.00 0.28 0.23 57 1006.3
20260510003604 19 261 4.8 16.1 0.00 0.28 0.23 56 1006.4
20260510003304 19 267 6.4 16.1 0.00 0.28 0.23 56 1006.3
20260510003004 19 270 8.0 17.7 0.00 0.28 0.23 56 1006.4
20260510002705 19 267 9.7 19.3 0.00 0.28 0.23 57 1006.5
20260510002404 19 258 9.7 19.3 0.00 0.28 0.23 55 1006.4
20260510002104 20 252 9.7 22.5 0.00 0.28 0.23 55 1006.4
20260510001804 20 255 8.0 22.5 0.00 0.28 0.23 55 1006.5
20260510001504 20 260 8.0 22.5 0.00 0.28 0.23 55 1006.4
20260510001204 20 256 8.0 19.3 0.00 0.28 0.23 55 1006.5
20260510000904 20 255 8.0 19.3 0.00 0.28 0.23 55 1006.5
20260510000605 20 251 9.7 19.3 0.00 0.28 0.23 55 1006.4
20260509235704 20 264 8.0 14.5 0.00 0.28 0.23 55 1006.2
20260509235105 20 256 8.0 16.1 0.00 0.28 0.23 55 1006.1
20260509234805 20 258 8.0 17.7 0.00 0.28 0.23 55 1006.1
20260509234504 20 265 8.0 17.7 0.00 0.28 0.23 55 1006.2
20260509234204 20 261 9.7 19.3 0.00 0.28 0.23 54 1006.0
20260509233604 20 258 9.7 19.3 0.00 0.28 0.23 55 1006.1
20260509233304 20 265 8.0 19.3 0.00 0.28 0.23 54 1005.9
20260509233004 20 264 8.0 17.7 0.00 0.28 0.23 54 1005.8
20260509232104 20 263 9.7 24.1 0.00 0.28 0.23 53 1005.9
20260509231804 20 265 8.0 17.7 0.00 0.28 0.23 53 1005.7
20260509231504 20 270 9.7 22.5 0.00 0.28 0.23 54 1005.7
20260509231204 20 272 9.7 22.5 0.00 0.28 0.23 54 1005.8
20260509230304 20 261 9.7 20.9 0.00 0.28 0.23 53 1005.7
20260509230005 20 261 9.7 20.9 0.00 0.28 0.23 53 1005.7
20260509225704 20 261 9.7 27.4 0.00 0.28 0.23 53 1005.8
20260509225404 20 259 11.3 27.4 0.00 0.28 0.23 53 1005.8
20260509225105 20 259 11.3 27.4 0.00 0.28 0.23 53 1005.8
20260509224804 20 244 11.3 29.0 0.00 0.28 0.23 53 1006.0
20260509224504 21 252 11.3 29.0 0.00 0.28 0.23 52 1005.9
20260509223904 21 266 9.7 24.1 0.00 0.28 0.23 52 1006.0
20260509223604 21 263 9.7 22.5 0.00 0.28 0.23 53 1006.0
20260509223304 21 262 9.7 24.1 0.00 0.28 0.23 53 1006.1
20260509223005 21 262 8.0 24.1 0.00 0.28 0.23 53 1006.1
20260509222704 21 252 9.7 24.1 0.00 0.28 0.23 54 1006.0
20260509222404 21 249 9.7 20.9 0.00 0.28 0.23 53 1006.1
20260509222104 21 254 9.7 22.5 0.00 0.28 0.23 53 1006.1
20260509221804 21 256 12.9 30.6 0.00 0.28 0.23 53 1006.0
20260509220604 21 253 9.7 24.1 0.00 0.28 0.23 54 1006.3
20260509220305 21 263 11.3 24.1 0.00 0.28 0.23 54 1006.3
20260509220005 21 260 11.3 24.1 0.00 0.28 0.23 53 1006.3
20260509215704 21 252 11.3 24.1 0.00 0.28 0.23 54 1006.2
20260509215404 21 243 11.3 24.1 0.00 0.28 0.23 54 1006.2
20260509215104 21 251 9.7 24.1 0.00 0.28 0.23 54 1006.3
20260509214804 21 257 11.3 25.7 0.00 0.28 0.23 54 1006.1
20260509214504 21 253 12.9 29.0 0.00 0.28 0.23 56 1006.3
20260509214204 21 253 14.5 32.2 0.00 0.28 0.23 53 1006.2
20260509213904 21 253 14.5 32.2 0.00 0.28 0.23 53 1006.3
20260509213604 21 252 14.5 32.2 0.00 0.28 0.23 53 1006.4
20260509213304 21 240 11.3 24.1 0.00 0.28 0.23 54 1006.3
20260509213005 21 240 9.7 22.5 0.00 0.28 0.23 53 1006.3
20260509212704 21 244 9.7 22.5 0.00 0.28 0.23 54 1006.4
20260509212404 21 254 12.9 29.0 0.00 0.28 0.23 54 1006.3
20260509212104 21 258 14.5 29.0 0.00 0.28 0.23 53 1006.4
20260509211804 21 261 14.5 29.0 0.00 0.28 0.23 53 1006.4
20260509211504 21 265 12.9 27.4 0.00 0.28 0.23 52 1006.5
20260509211204 21 268 9.7 17.7 0.00 0.28 0.23 54 1006.5
20260509210904 21 261 9.7 22.5 0.00 0.28 0.23 53 1006.4
20260509210604 21 252 11.3 22.5 0.00 0.28 0.23 53 1006.4
20260509210005 21 252 14.5 27.4 0.00 0.28 0.23 54 1006.5
20260509205105 21 251 12.9 27.4 0.00 0.28 0.23 55 1006.3
20260509204804 21 249 12.9 27.4 0.00 0.28 0.23 55 1006.5
20260509204204 21 259 12.9 29.0 0.00 0.28 0.23 54 1006.5
20260509203904 21 264 12.9 29.0 0.00 0.28 0.23 57 1006.5
20260509203605 21 253 14.5 29.0 0.00 0.28 0.23 57 1006.5
20260509203304 21 250 14.5 29.0 0.00 0.28 0.23 56 1006.4
20260509203004 21 241 12.9 29.0 0.00 0.28 0.23 56 1006.5
20260509202705 21 242 12.9 29.0 0.00 0.28 0.23 56 1006.6
20260509202405 21 245 11.3 27.4 0.00 0.28 0.23 57 1006.7
20260509202104 21 248 11.3 27.4 0.00 0.28 0.23 56 1006.9
20260509201805 21 253 11.3 20.9 0.00 0.28 0.23 56 1006.8
20260509201205 20 251 12.9 29.0 0.00 0.28 0.23 60 1006.9
20260509200904 20 245 14.5 30.6 0.00 0.28 0.23 56 1006.9
20260509200604 20 230 11.3 30.6 0.00 0.28 0.23 57 1007.1
20260509200304 20 232 11.3 30.6 0.00 0.28 0.23 56 1007.2
20260509200005 21 239 11.3 20.9 0.00 0.28 0.23 57 1007.3
20260509195704 20 248 11.3 30.6 0.00 0.28 0.23 59 1007.1
20260509195405 20 253 12.9 30.6 0.00 0.28 0.23 59 1007.3
20260509195104 20 255 14.5 30.6 0.00 0.28 0.23 57 1007.4
20260509194804 20 250 12.9 25.7 0.00 0.28 0.23 60 1007.3
20260509194204 20 238 9.7 25.7 0.00 0.28 0.23 60 1007.6
20260509193904 20 233 9.7 25.7 0.00 0.28 0.23 61 1007.5
20260509193605 20 242 8.0 20.9 0.00 0.28 0.23 59 1007.6
20260509193304 20 247 8.0 20.9 0.00 0.28 0.23 60 1007.6
20260509193005 20 258 9.7 29.0 0.00 0.28 0.23 59 1007.5
20260509192705 20 254 11.3 29.0 0.00 0.28 0.23 61 1007.5
20260509192405 20 257 11.3 29.0 0.00 0.28 0.23 60 1007.6
20260509192104 20 242 9.7 20.9 0.00 0.28 0.23 60 1007.7
20260509191804 20 249 11.3 22.5 0.00 0.28 0.23 62 1007.6
20260509191504 20 241 11.3 30.6 0.00 0.28 0.23 62 1007.5
20260509190904 20 244 12.9 30.6 0.00 0.28 0.23 61 1007.7
20260509190604 20 245 12.9 24.1 0.00 0.28 0.23 62 1007.7
20260509190304 20 248 14.5 24.1 0.00 0.28 0.23 63 1007.9
20260509190006 19 253 12.9 22.5 0.00 0.28 0.23 63 1007.8
20260509185404 18 256 11.3 25.7 0.00 0.28 0.23 62 1007.9
20260509185104 19 254 9.7 25.7 0.00 0.28 0.23 64 1007.9
20260509184804 18 256 9.7 25.7 0.00 0.28 0.23 64 1008.0
20260509184204 18 245 12.9 35.4 0.00 0.28 0.23 64 1008.1
20260509183904 18 244 16.1 35.4 0.00 0.28 0.23 62 1008.0
20260509183304 19 260 14.5 30.6 0.00 0.28 0.23 63 1007.9
20260509183005 19 270 12.9 30.6 0.00 0.28 0.23 65 1008.0
20260509182703 18 235 11.3 22.5 0.00 0.28 0.23 68 1008.0
20260509182404 18 214 9.7 22.5 0.00 0.28 0.23 70 1008.0
20260509182104 18 223 11.3 22.5 0.00 0.28 0.23 68 1008.0
20260509181804 17 252 11.3 22.5 0.00 0.28 0.23 67 1008.0
20260509181504 18 263 9.7 22.5 0.00 0.28 0.23 67 1008.1
20260509181204 18 255 11.3 22.5 0.00 0.28 0.23 66 1008.1
20260509180904 18 253 9.7 24.1 0.00 0.28 0.23 69 1008.1
20260509180604 18 247 11.3 24.1 0.00 0.28 0.23 67 1008.1
20260509180304 18 260 12.9 24.1 0.00 0.28 0.23 68 1008.1
20260509180005 18 257 12.9 24.1 0.00 0.28 0.23 68 1008.2
20260509175704 18 261 12.9 27.4 0.00 0.28 0.23 68 1008.0
20260509175104 18 259 11.3 27.4 0.00 0.28 0.23 69 1008.2
20260509174804 18 229 9.7 24.1 0.00 0.28 0.23 69 1008.1
20260509174504 18 221 8.0 19.3 0.00 0.28 0.23 71 1008.2
20260509174204 18 227 9.7 25.7 0.00 0.28 0.23 69 1008.2
20260509173904 18 245 11.3 25.7 0.00 0.28 0.23 73 1008.2
20260509173604 17 238 12.9 25.7 0.00 0.28 0.23 72 1008.2
20260509173004 17 248 12.9 30.6 0.00 0.28 0.23 74 1008.3
20260509172704 17 256 12.9 30.6 0.00 0.28 0.23 74 1008.3
20260509172404 17 246 9.7 25.7 0.00 0.28 0.23 76 1008.2
20260509172104 16 243 9.7 20.9 0.00 0.28 0.23 76 1008.3
20260509171504 17 241 9.7 24.1 0.00 0.28 0.23 75 1008.4
20260509171204 17 244 11.3 24.1 0.00 0.28 0.23 76 1008.4
20260509170905 17 249 11.3 24.1 0.00 0.28 0.23 74 1008.3
20260509170604 17 260 9.7 20.9 0.00 0.28 0.23 76 1008.3
20260509170304 16 261 9.7 20.9 0.00 0.28 0.23 77 1008.3
20260509165704 16 255 9.7 22.5 0.00 0.28 0.23 77 1008.5
20260509165404 16 252 9.7 22.5 0.00 0.28 0.23 77 1008.5
20260509165104 16 247 8.0 17.7 0.00 0.28 0.23 77 1008.4
20260509164804 16 227 6.4 14.5 0.00 0.28 0.23 77 1008.3
20260509164205 16 220 8.0 24.1 0.00 0.28 0.23 79 1008.3
20260509163904 16 230 9.7 27.4 0.00 0.28 0.23 78 1008.3
20260509163604 16 241 9.7 27.4 0.00 0.28 0.23 80 1008.2
20260509163304 16 252 9.7 27.4 0.00 0.28 0.23 79 1008.3
20260509162704 15 264 8.0 20.9 0.00 0.28 0.23 82 1008.4
20260509162404 15 267 8.0 20.9 0.00 0.28 0.23 82 1008.4
20260509162104 15 262 6.4 20.9 0.00 0.28 0.23 82 1008.4
20260509161504 15 257 4.8 16.1 0.00 0.28 0.23 83 1008.4
20260509161204 14 260 8.0 20.9 0.00 0.28 0.23 83 1008.5
20260509160904 14 264 8.0 20.9 0.00 0.28 0.23 82 1008.4
20260509160304 14 266 8.0 20.9 0.00 0.28 0.23 82 1008.5
20260509155404 15 248 9.7 20.9 0.00 0.28 0.23 83 1008.3
20260509155104 15 248 9.7 20.9 0.00 0.28 0.23 82 1008.2
20260509154804 14 258 9.7 20.9 0.00 0.28 0.23 82 1008.2
20260509154504 14 262 8.0 20.9 0.00 0.28 0.23 82 1008.2
20260509153904 14 251 8.0 16.1 0.00 0.28 0.23 83 1008.1
20260509153304 14 254 8.0 17.7 0.00 0.28 0.23 83 1008.1
20260509152703 14 244 4.8 17.7 0.03 0.28 0.23 83 1008.1
20260509152404 15 249 6.4 19.3 0.03 0.28 0.23 83 1008.1
20260509152104 15 249 8.0 19.3 0.03 0.28 0.23 83 1008.1
20260509151805 14 250 9.7 20.9 0.03 0.28 0.23 83 1008.0
20260509151504 14 241 8.0 20.9 0.03 0.28 0.23 84 1008.0
20260509150904 14 243 8.0 16.1 0.03 0.28 0.23 83 1008.0
20260509150604 14 253 8.0 16.1 0.03 0.28 0.23 84 1008.0
20260509150005 14 260 8.0 14.5 0.03 0.28 0.23 85 1008.0
20260509145705 14 257 9.7 17.7 0.03 0.28 0.23 85 1007.9
20260509145404 14 253 9.7 19.3 0.05 0.28 0.23 85 1007.8
20260509144204 14 255 9.7 19.3 0.05 0.28 0.23 87 1007.8
20260509143904 13 253 11.3 24.1 0.05 0.28 0.23 87 1007.9
20260509143604 13 246 11.3 25.7 0.08 0.28 0.23 88 1007.9
20260509143304 13 245 9.7 25.7 0.05 0.25 0.20 88 1007.9
20260509143004 13 242 8.0 25.7 0.05 0.25 0.20 88 1008.0
20260509142404 13 243 6.4 16.1 0.05 0.25 0.20 88 1007.9
20260509142104 13 260 6.4 16.1 0.05 0.25 0.20 89 1007.9
20260509141804 13 263 4.8 16.1 0.05 0.25 0.20 91 1008.0
20260509141504 13 260 6.4 14.5 0.05 0.25 0.20 90 1007.9
20260509141204 13 254 6.4 14.5 0.05 0.25 0.20 92 1007.9
20260509140905 12 246 4.8 14.5 0.05 0.25 0.20 91 1008.0
20260509140604 12 253 4.8 11.3 0.05 0.25 0.20 91 1008.1
20260509140304 12 270 4.8 12.9 0.05 0.25 0.20 92 1008.1
20260509140005 12 270 4.8 12.9 0.05 0.25 0.20 92 1008.0
20260509135704 12 271 4.8 12.9 0.03 0.23 0.18 92 1008.1
20260509135404 12 269 4.8 11.3 0.05 0.23 0.18 92 1008.0
20260509135104 12 249 4.8 11.3 0.05 0.23 0.18 92 1008.1
20260509134805 12 237 4.8 11.3 0.05 0.23 0.18 92 1008.1
20260509134504 12 230 4.8 11.3 0.05 0.23 0.18 92 1008.2
20260509134204 12 239 4.8 14.5 0.05 0.23 0.18 92 1008.2
20260509133904 12 250 4.8 14.5 0.05 0.23 0.18 93 1008.2
20260509133604 12 243 4.8 14.5 0.03 0.20 0.15 93 1008.3
20260509133305 12 242 6.4 14.5 0.03 0.20 0.15 93 1008.2
20260509133005 12 235 6.4 19.3 0.03 0.20 0.15 93 1008.3
20260509132704 12 248 6.4 19.3 0.03 0.20 0.15 93 1008.3
20260509132404 12 250 6.4 19.3 0.03 0.20 0.15 93 1008.3
20260509131804 12 250 6.4 16.1 0.05 0.20 0.15 93 1008.4
20260509131504 12 248 8.0 14.5 0.05 0.20 0.15 93 1008.3
20260509131204 12 254 6.4 16.1 0.05 0.20 0.15 93 1008.4
20260509130605 12 253 6.4 16.1 0.05 0.20 0.15 93 1008.3
20260509125704 11 270 4.8 17.7 0.05 0.20 0.15 93 1008.4
20260509125104 11 270 4.8 16.1 0.03 0.18 0.13 94 1008.4
20260509124804 11 270 4.8 16.1 0.03 0.18 0.13 94 1008.4
20260509124504 11 276 4.8 16.1 0.03 0.18 0.13 94 1008.4
20260509124205 11 267 4.8 14.5 0.03 0.18 0.13 94 1008.4
20260509123904 11 267 4.8 12.9 0.03 0.18 0.13 94 1008.3
20260509123605 11 269 4.8 12.9 0.03 0.18 0.13 94 1008.4
20260509123304 11 274 4.8 12.9 0.05 0.18 0.13 94 1008.4
20260509123004 11 177 4.8 14.5 0.05 0.18 0.13 94 1008.3
20260509122704 11 136 4.8 14.5 0.05 0.18 0.13 94 1008.3
20260509122404 11 130 4.8 14.5 0.05 0.18 0.13 94 1008.2
20260509122104 11 127 3.2 14.5 0.05 0.18 0.13 94 1008.2
20260509121804 11 121 1.6 9.7 0.03 0.15 0.10 94 1008.4
20260509121504 11 131 1.6 9.7 0.03 0.15 0.10 94 1008.5
20260509120904 11 142 1.6 4.8 0.03 0.15 0.10 94 1008.7
20260509120604 11 144 1.6 4.8 0.03 0.15 0.10 94 1008.6
20260509120304 11 130 1.6 4.8 0.05 0.15 0.10 94 1008.7
20260509120004 11 117 1.6 4.8 0.05 0.15 0.10 94 1008.7
20260509115704 11 117 1.6 4.8 0.05 0.15 0.10 94 1008.7
20260509115104 11 127 1.6 6.4 0.05 0.15 0.10 94 1008.6
20260509114804 11 132 3.2 8.0 0.05 0.15 0.10 94 1008.7
20260509114204 11 144 1.6 8.0 0.05 0.15 0.10 94 1008.7
20260509113904 11 0 0.0 8.0 0.05 0.15 0.10 94 1008.7
20260509113604 11 144 1.6 6.4 0.03 0.13 0.08 94 1008.7
20260509113305 11 126 1.6 6.4 0.03 0.13 0.08 94 1008.7
20260509113004 11 132 1.6 6.4 0.03 0.13 0.08 94 1008.7
20260509112704 11 139 1.6 6.4 0.03 0.13 0.08 94 1008.6
20260509112405 11 144 1.6 6.4 0.03 0.13 0.08 93 1008.6
20260509111804 11 0 0.0 4.8 0.03 0.13 0.08 93 1008.6
20260509111504 11 0 0.0 4.8 0.03 0.13 0.08 93 1008.5
20260509111204 11 0 0.0 3.2 0.03 0.13 0.08 93 1008.4
20260509110904 11 192 1.6 4.8 0.03 0.13 0.08 94 1008.4
20260509110604 11 175 1.6 8.0 0.03 0.13 0.08 93 1008.3
20260509110304 11 149 1.6 8.0 0.00 0.10 0.05 93 1008.2
20260509110004 11 147 1.6 8.0 0.03 0.10 0.05 93 1008.3
20260509105704 11 150 1.6 8.0 0.03 0.10 0.05 94 1008.2
20260509105404 11 160 3.2 8.0 0.03 0.10 0.05 94 1008.2
20260509105104 11 154 3.2 12.9 0.03 0.10 0.05 94 1008.2
20260509104804 11 146 3.2 12.9 0.03 0.10 0.05 94 1008.3